Location: Pedholt
(56.0260°N, 10.2097°E)
Time: 06:03:49
(UTC+00:00)

Cosmos 614 Rocket - Pass Details

Date: 14 July 2020
Orbit: 732 x 764 km, 74.1° (Epoch: 14 August)

Event Time Altitude Azimuth Distance (km) Brightness Sun altitude
Exits shadow 00:43:18 13° 181° (S) 2,050 5.6 -10.6°
Maximum altitude 00:47:40 50° 109° (ESE) 948 4.5 -10.4°
Drops below altitude 10° 00:52:38 10° 35° (NE) 2,277 7.9 -10.2°
Sets 00:55:03 0° 31° (NNE) 3,211 9.3 -10.0°
